Грузско-Зорянское

Украина / Донецкая область     47˚56′33″N   38˚05′19″E
темп.,
°C
ветер,
м/с
пор.,
м/с
влажн.,
%
обл.,
%
осадки,
мм/ч
давл.,
гПа
погр.,
м
16 января, сб
сб1623:00−3˚юз5119595 0.6 1010764
02:00−6˚зсз5108998 0.9 1011675
05:00−9˚з51087100 0.1 1012728
08:00−10˚з488797 0.1 1015699
11:00−9˚з588187 0.0 1016770
14:00−8˚з487982 0.0 1016797
17:00−9˚з378856 0.0 1016405
20:00−9˚з259172 0.0 1016263
17 января, вс
вс1723:00−9˚юз119296 0.0 101639
02:00−9˚св119198 0.0 1015110
05:00−9˚всв2390100 0.0 1014170
08:00−9˚св3687100 0.0 1014251
11:00−8˚св3585100 0.0 1014390
14:00−8˚св4786100 0.1 1013442
17:00−9˚ссв5893100 0.4 1013393
20:00−10˚ссв4893100 1.4 1014344
18 января, пн
пн1823:00−11˚ссв4894100 1.2 1014296
02:00−11˚ссв4694100 2.4 1014323
05:00−12˚с3694100 0.7 1014278
08:00−12˚с3593100 0.9 1016240
11:00−10˚с228990 0.0 1017305
14:00−9˚ссв228995 0.1 1016378
17:00−10˚зюз0196100 0.1 101853
20:00−11˚з1197100 0.3 101831
19 января, вт
вт1923:00−12˚з119799 0.1 101846
02:00−14˚зсз129798 0.1 101956
05:00−15˚зсз239797 0.0 1018107
08:00−16˚зсз359692 0.1 1019177
11:00−14˚зсз348974 0.0 1020463
14:00−13˚зсз358887 0.0 1019522
17:00−15˚зсз3693100 0.0 1021294
20:00−15˚зсз379496 0.1 1022278
20 января, ср
ср2023:00−16˚з369694 0.0 1023240
02:00−16˚зсз369694 0.0 1024198
05:00−16˚зсз359555 0.0 1024166
08:00−16˚зсз239540 0.0 1026112
11:00−12˚зсз238836 0.0 1027302
14:00−10˚з238957 0.0 1026360
17:00−13˚зюз129563 0.0 102820
20:00−13˚ю129431 0.0 102821